Flag for Austria Weather past 2 weeks in Bruck an der Mur, Styria, Austria

Now
46 °F

Snow. Overcast.


Feels Like: 46 °F
Forecast: 42 / 55 °F
Wind: 2 mph from Northeast

Location: Graz-Thalerhof-Flughafen

Current Time: Apr 27, 2015 at 3:49:18 AM

Latest Report: Apr 27, 2015 at 3:20 AM


Visibility: 1 mi

Pressure: 29.74 "Hg

Humidity: 100%

Dew point: 46 °F

Location of Bruck an der MurLocation

Historic Weather in Bruck an der Mur — Graph

°F

Bruck an der Mur temperature yesterday

Maximum temperature yesterday: 72 °F (at 1:20 PM)
Minimum temperature yesterday: 46 °F (at 5:20 AM)
Average temperature yesterday: 60 °F

Past Weeks' High & Low Weather Summary

 TemperatureHumidityPressure
High81 °F (Apr 16, 3:50 PM)100% (Apr 12, 2:20 AM)30.42 "Hg (Apr 12, 2:20 AM)
Low32 °F (Apr 19, 5:50 AM)17% (Apr 16, 3:20 PM)29.77 "Hg (Apr 17, 2:50 PM)
Average55 °F59%30.08 "Hg
* Reported Apr 12 2:20 AM — Apr 27 2:20 AM, Bruck an der Mur, Weather by CustomWeather, © 2015

Note: Actual official high and low records may vary slightly from our data, if they occured in-between our weather recording intervals... More about our weather records

Advertising

Bruck an der Mur weather history for previous 24 hours

 ConditionsComfort  
Time TempWeatherWind HumidityBarometerVisibility
2:20 AM
Mon, Apr 27
48 °FFog.1 mph100%29.77 "Hg2 mi
1:50 AM48 °FSnow. Overcast.3 mph100%29.77 "HgN/A
1:20 AM48 °FCool.1 mph94%29.77 "HgN/A
12:50 AM50 °FCool.1 mph94%29.80 "HgN/A
12:20 AM52 °FCool.1 mph94%29.80 "HgN/A
11:50 PM
Sun, Apr 26
50 °FCool.1 mph94%29.80 "HgN/A
11:20 PM52 °FPassing clouds.1 mph88%29.80 "HgN/A
10:50 PM55 °FPassing clouds.3 mph82%29.80 "HgN/A
10:20 PM55 °FPassing clouds.3 mph82%29.80 "HgN/A
9:50 PM57 °FPassing clouds.2 mph77%29.80 "HgN/A
9:20 PM55 °FPassing clouds.7 mph77%29.80 "HgN/A
8:50 PM57 °FPassing clouds.5 mph77%29.80 "HgN/A
8:20 PM61 °FPassing clouds.7 mph68%29.80 "HgN/A
7:50 PM61 °FPassing clouds.7 mph68%29.77 "HgN/A
7:20 PM63 °FPassing clouds.9 mph64%29.77 "HgN/A
6:50 PM66 °FScattered clouds.9 mph56%29.77 "HgN/A
6:20 PM66 °FScattered clouds.6 mph60%29.77 "HgN/A
5:50 PM68 °FPassing clouds.8 mph49%29.77 "HgN/A
5:20 PM68 °FPassing clouds.8 mph56%29.80 "HgN/A
4:50 PM66 °FPartly sunny.3 mph56%29.80 "HgN/A
4:20 PM66 °FPartly sunny.9 mph52%29.80 "HgN/A
3:50 PM66 °FPartly sunny.6 mph56%29.80 "HgN/A
3:20 PM68 °FPartly sunny.13 mph46%29.80 "HgN/A
2:50 PM70 °FScattered clouds.8 mph40%29.80 "HgN/A
2:20 PM70 °FScattered clouds.12 mph40%29.83 "HgN/A
1:50 PM70 °FScattered clouds.12 mph43%29.83 "HgN/A
1:20 PM72 °FScattered clouds.9 mph38%29.83 "HgN/A
12:50 PM70 °FPassing clouds.9 mph40%29.83 "HgN/A
12:20 PM70 °FPassing clouds.9 mph40%29.86 "HgN/A
11:50 AM70 °FPassing clouds.7 mph43%29.86 "HgN/A
11:20 AM68 °FPassing clouds.5 mph40%29.86 "HgN/A
10:50 AM66 °FPassing clouds.5 mph49%29.86 "HgN/A
10:20 AM66 °FPassing clouds.1 mph49%29.86 "HgN/A
9:50 AM64 °FScattered clouds.1 mph52%29.86 "HgN/A
9:20 AM61 °FScattered clouds.1 mph59%29.86 "HgN/A
8:50 AM59 °FPartly sunny.1 mph68%29.86 "HgN/A
8:20 AM57 °FPartly sunny.1 mph67%29.86 "HgN/A
7:50 AM54 °FPartly sunny.1 mph82%29.86 "HgN/A
7:20 AM52 °FPartly sunny.1 mph82%29.86 "HgN/A
6:50 AM50 °FPartly cloudy.1 mph88%29.86 "HgN/A
6:20 AM50 °FPassing clouds.1 mph88%29.83 "HgN/A
5:50 AM52 °FPassing clouds.5 mph77%29.83 "HgN/A
5:20 AM46 °FCool.2 mph93%29.83 "HgN/A
4:50 AM48 °FClear.2 mph94%29.83 "Hg10 mi
4:20 AM48 °FCool.2 mph87%29.83 "HgN/A
3:50 AM50 °FClear.1 mph88%29.83 "Hg10 mi
3:20 AM52 °FClear.2 mph88%29.83 "Hg10 mi
Weather by CustomWeather, © 2015

See weather overviewHow to use our weather pages